Location: *
(41.7492°S, 135.4150°W)
Time: 21:44:36
(UTC+00:00)

TIGRISAT - Pass Details

Date: 04 July 2022
Orbit: 604 x 686 km, 97.7° (Epoch: 14 August)

Event Time Altitude Azimuth Distance (km) Brightness Sun altitude
Rises 15:34:50 0° 170° (S) 3,093 ? -9.9°
Reaches altitude 10° 15:37:07 10° 171° (S) 2,166 ? -9.5°
Maximum altitude 15:41:52 76° 255° (WSW) 713 ? -8.7°
Drops below altitude 10° 15:46:29 10° 341° (NNW) 2,105 ? -7.9°
Sets 15:48:41 0° 342° (NNW) 2,999 ? -7.6°
